[[{"header":{"parameterUnit":"m.s-1","parameterCategory":1,"la1":30.2991,"la2":30.254,"lo1":-89.0895,"lo2":-89.0444,"dy":0.0017,"dx":0.0017,"nx":28,"ny":28,"refTime":"2024-02-20T09:00:00:Z","depth":0,"parameterNumber":2,"parameterNumberName":"U-component_of_WINDS"},"data":[0,0,0,0,0,0,0,0,0,0,0,0,0,0,0,0,0,0,0,0,0,0,0,0,0,0,0,0,0,0,0,0,0,0,0,0,0,0,0,0,0,0,0,0,0,0,0,0,0,0,0,0,0,0,0,0,0,0,1.3411,1.3412,0,1.35,1.3501,1.3502,1.3497,1.3496,1.3495,1.3494,1.3589,1.3593,1.3596,0,0,0,0,0,0,0,0,0,0,0,0,0,1.3239,1.3242,1.3411,1.3412,1.3413,1.35,1.3501,1.3503,1.3498,1.3496,1.3495,1.3493,1.3588,1.3592,1.3597,0,0,0,0,0,0,0,0,0,0,0,0,0,1.332,1.3243,1.341,1.3421,1.3423,1.35,1.3502,1.3503,1.3498,1.3496,1.3494,1.3492,1.3586,1.3592,1.3597,1.3671,0,0,1.3614,1.3617,0,0,0,0,0,0,0,0,1.3315,1.3326,1.3418,1.342,1.3422,1.3486,1.3476,1.356,1.3499,1.347,1.3494,1.3491,1.3556,1.3564,1.3586,1.3676,1.368,1.3615,1.3618,1.3621,1.3622,0,0,0,0,0,0,0,1.331,1.3322,1.3446,1.342,1.3422,1.3422,1.3432,1.3492,1.3523,1.3472,1.3472,1.3482,1.3557,1.358,1.3588,1.3681,1.3615,1.362,1.3623,1.3625,1.3838,1.384,0,0,0,0,0,0,1.3301,1.3318,1.3443,1.3449,1.3363,1.3427,1.3437,1.3467,1.3522,1.3529,1.3484,1.3482,1.3571,1.3581,1.3591,1.3681,1.3621,1.3626,1.3629,1.3835,1.3838,1.384,0,0,0,0,0,0,1.3298,1.3313,1.344,1.3383,1.3399,1.3432,1.3466,1.347,1.3493,1.3531,1.3537,1.3501,1.357,1.3583,1.3651,1.3684,1.3629,1.3634,1.3833,1.3836,1.3839,1.3862,0,0,0,0,0,0,1.3293,1.3311,1.3338,1.3384,1.3402,1.3497,1.3468,1.3473,1.3502,1.35,1.3549,1.3555,1.357,1.3643,1.3657,1.3691,1.3638,1.383,1.3834,1.3838,1.3858,1.3866,1.3872,0,0,0,0,0,1.3287,1.3342,1.334,1.3355,1.3437,1.3499,1.351,1.3524,1.3505,1.3533,1.3558,1.3554,1.3679,1.365,1.3666,1.3702,1.3828,1.3833,1.3838,1.3855,1.3864,1.3872,0,0,0,0,0,0,1.33,1.3348,1.3346,1.3417,1.3454,1.3498,1.3534,1.3533,1.3577,1.3573,1.3591,1.3602,1.367,1.3693,1.366,1.3777,1.3751,1.376,1.3759,1.3768,1.3774,1.3767,1.3643,0,0,0,0,0,1.3311,1.3356,1.3396,1.3455,1.3474,1.3501,1.3528,1.3536,1.3575,1.3591,1.3621,1.366,1.3708,1.374,1.3786,1.3862,1.3873,1.3896,1.3902,1.3908,1.3914,1.3957,1.3967,1.3857,1.3857,1.3857,0,0,1.3334,1.3366,1.3394,1.3459,1.3488,1.3535,1.3514,1.3565,1.36,1.3599,1.3665,1.3688,1.3734,1.3806,1.384,1.3827,1.3948,1.3914,1.3918,1.3922,1.3963,1.3974,1.3983,1.3861,1.386,1.3859,0,0,1.3401,1.3429,1.3482,1.3512,1.3557,1.3575,1.3587,1.3632,1.3647,1.3713,1.3714,1.3758,1.384,1.3872,1.3899,1.3981,1.3979,1.3996,1.4031,1.4072,1.4081,1.4089,1.4117,1.4128,1.4003,1.4003,1.4003,0,1.3424,1.3494,1.3509,1.356,1.3589,1.3591,1.3645,1.3674,1.3732,1.3752,1.3738,1.3842,1.3873,1.3953,1.3973,1.3995,1.4011,1.3989,1.4078,1.4086,1.4094,1.4121,1.4132,1.4005,1.4004,1.4004,1.4004,0,1.3521,1.357,1.3608,1.3663,1.3696,1.3749,1.3773,1.3806,1.3812,1.3832,1.39,1.3937,1.3991,1.4011,1.4018,1.4093,1.4084,1.4074,1.4048,1.4106,1.4132,1.4143,1.4007,1.4006,1.4006,1.4005,0,0,1.3595,1.366,1.3673,1.3698,1.3749,1.3788,1.3842,1.3894,1.3922,1.3963,1.4008,1.4079,1.407,1.4101,1.4112,1.4149,1.4211,1.4135,1.4136,1.4147,1.4296,1.4302,1.4314,1.4211,1.4213,1.4214,1.4292,0,1.3666,1.376,1.3776,1.3858,1.3904,1.3907,1.3954,1.3991,1.4012,1.4056,1.4079,1.4129,1.4114,1.4133,1.4169,1.4196,1.4241,1.419,1.4254,1.4256,1.4241,1.4328,1.4335,1.4406,1.4303,1.4305,1.4306,0,1.3761,1.3803,1.389,1.3935,1.3956,1.3997,1.4047,1.4088,1.4131,1.4144,1.418,1.4187,1.4244,1.4217,1.4296,1.4262,1.4289,1.4307,1.431,1.4315,1.4283,1.4335,1.4429,1.444,1.4322,1.4321,1.432,0,1.3805,1.3885,1.3947,1.3969,1.4024,1.4053,1.4078,1.4119,1.415,1.4194,1.4215,1.4266,1.4294,1.4334,1.4355,1.4333,1.4433,1.4408,1.4446,1.4445,1.4465,1.4463,1.4564,1.4485,1.4485,1.4485,1.4485,0,1.3882,1.3934,1.3968,1.4006,1.4066,1.4085,1.4144,1.4169,1.4205,1.4249,1.4257,1.4298,1.4324,1.437,1.4387,1.4451,1.4464,1.4476,1.448,1.4475,1.4473,1.4492,1.4487,1.4488,1.4487,1.4487,1.4486,0,1.394,1.3965,1.4033,1.408,1.4093,1.4135,1.4176,1.4214,1.4236,1.4292,1.4306,1.4341,1.4395,1.4421,1.4488,1.45,1.4572,1.4573,1.4557,1.4558,1.4594,1.459,1.4709,1.4726,1.4637,1.4638,1.4639,0,1.3986,1.4027,1.4079,1.4108,1.4133,1.4181,1.4213,1.4235,1.4268,1.4321,1.4353,1.4407,1.4451,1.4538,1.457,1.4622,1.4624,1.4663,1.4632,1.4626,1.4624,1.462,1.4625,1.4667,1.4668,1.4669,1.467,0,1.4065,1.4076,1.4121,1.4171,1.4208,1.4249,1.4289,1.4313,1.4342,1.4379,1.4434,1.4469,1.4538,1.4592,1.4647,1.4673,1.4677,1.4679,1.4691,1.4685,1.4673,1.4679,1.457,1.4676,1.4675,1.4675,1.4675,1.4674,1.4118,1.4155,1.4197,1.4248,1.428,1.4318,1.4356,1.4383,1.4429,1.4486,1.4497,1.4556,1.46,1.4674,1.4703,1.475,1.4741,1.4758,1.4762,1.4765,1.4767,1.4667,1.476,1.476,1.476,1.476,1.476,0,1.4197,1.4225,1.4271,1.4327,1.4367,1.4367,1.4412,1.4445,1.4497,1.4537,1.4581,1.4646,1.4699,1.4736,1.479,1.4821,1.4824,1.4834,1.4832,1.4838,1.4772,1.4756,1.4831,1.4831,1.4831,1.4831,1.4831,1.4831,1.4242,1.4304,1.432,1.4399,1.4427,1.4484,1.451,1.4545,1.4578,1.4649,1.4693,1.4717,1.4757,1.4814,1.4864,1.4873,1.4893,1.4903,1.4913,1.485,1.4842,1.4835,1.482,1.4908,1.4908,1.4974,1.4975,1.4975]},{"header":{"parameterUnit":"m.s-1","parameterCategory":1,"la1":30.2991,"la2":30.254,"lo1":-89.0895,"lo2":-89.0444,"dy":0.0017,"dx":0.0017,"nx":28,"ny":28,"refTime":"2024-02-20T09:00:00:Z","depth":0,"parameterNumber":3,"parameterNumberName":"V-component_of_WINDS"},"data":[0,0,0,0,0,0,0,0,0,0,0,0,0,0,0,0,0,0,0,0,0,0,0,0,0,0,0,0,0,0,0,0,0,0,0,0,0,0,0,0,0,0,0,0,0,0,0,0,0,0,0,0,0,0,0,0,0,0,2.4445,2.4445,0,2.4507,2.4507,2.4508,2.4548,2.4548,2.4548,2.4548,2.4605,2.4606,2.4608,0,0,0,0,0,0,0,0,0,0,0,0,0,2.4353,2.4354,2.4444,2.4445,2.4446,2.4507,2.4507,2.4508,2.4548,2.4548,2.4548,2.4548,2.4605,2.4606,2.4608,0,0,0,0,0,0,0,0,0,0,0,0,0,2.4401,2.4355,2.4444,2.4473,2.4476,2.4506,2.4507,2.4509,2.4548,2.4548,2.4548,2.4549,2.4604,2.4606,2.4608,2.4612,0,0,2.4614,2.4615,0,0,0,0,0,0,0,0,2.4398,2.4405,2.4468,2.4471,2.4475,2.452,2.4496,2.4543,2.4547,2.452,2.4548,2.4549,2.4576,2.458,2.4591,2.4615,2.4617,2.4614,2.4615,2.4616,2.4617,0,0,0,0,0,0,0,2.4395,2.4402,2.4469,2.4469,2.4473,2.4481,2.4488,2.4505,2.4545,2.4523,2.4526,2.4533,2.4578,2.4589,2.4593,2.4618,2.4614,2.4616,2.4617,2.4618,2.4648,2.4647,0,0,0,0,0,0,2.4388,2.4399,2.4467,2.4471,2.4437,2.4482,2.449,2.4505,2.4545,2.4552,2.4533,2.4535,2.4586,2.459,2.4595,2.4602,2.4616,2.4618,2.4619,2.4648,2.4647,2.4647,0,0,0,0,0,0,2.4386,2.4394,2.4464,2.4436,2.4445,2.4483,2.4499,2.4506,2.4517,2.4553,2.4559,2.4537,2.4586,2.4592,2.4608,2.4604,2.4619,2.4621,2.4648,2.4648,2.4647,2.4616,0,0,0,0,0,0,2.4383,2.4393,2.4397,2.4436,2.4447,2.4479,2.4499,2.4507,2.4521,2.4524,2.4559,2.4564,2.4587,2.4605,2.461,2.4607,2.4622,2.4649,2.4648,2.4647,2.4618,2.4615,2.4612,0,0,0,0,0,2.438,2.4384,2.4397,2.4405,2.4453,2.4478,2.4484,2.4512,2.4521,2.4524,2.4546,2.4563,2.4604,2.4606,2.4612,2.461,2.4649,2.4648,2.4647,2.4619,2.4615,2.4612,0,0,0,0,0,0,2.4341,2.439,2.4404,2.4422,2.4446,2.4485,2.449,2.4507,2.4528,2.453,2.4561,2.4568,2.4581,2.4597,2.4598,2.4616,2.4628,2.4629,2.4605,2.4601,2.4599,2.4594,2.4624,0,0,0,0,0,2.4335,2.4354,2.4395,2.4406,2.4418,2.4451,2.4464,2.4483,2.4508,2.4518,2.4542,2.4564,2.4582,2.4592,2.4611,2.462,2.4627,2.4621,2.4619,2.4616,2.4616,2.4621,2.4618,2.4644,2.4644,2.4644,0,0,2.4322,2.4351,2.436,2.4399,2.442,2.4437,2.446,2.4477,2.4489,2.452,2.4537,2.4555,2.4581,2.4594,2.46,2.4608,2.461,2.4615,2.4613,2.4614,2.462,2.4617,2.4615,2.4644,2.4644,2.4644,0,0,2.4306,2.4331,2.4343,2.4364,2.4396,2.4419,2.4421,2.4458,2.4472,2.449,2.4513,2.4527,2.4557,2.4575,2.4588,2.4578,2.4594,2.4583,2.4568,2.4573,2.4571,2.4569,2.4565,2.4563,2.4583,2.4583,2.4583,0,2.4285,2.4314,2.4346,2.4362,2.4377,2.4409,2.4419,2.4437,2.4473,2.4482,2.449,2.4528,2.4548,2.4565,2.4563,2.4573,2.4575,2.4579,2.4569,2.4567,2.4566,2.4562,2.4561,2.4581,2.4581,2.4582,2.4582,0,2.4285,2.4305,2.431,2.4346,2.4362,2.4375,2.4407,2.4419,2.4437,2.4457,2.4474,2.45,2.4523,2.4529,2.4545,2.4547,2.4551,2.4563,2.4577,2.4562,2.4558,2.4557,2.4579,2.458,2.458,2.458,0,0,2.4247,2.4301,2.4302,2.4319,2.4357,2.4371,2.4385,2.441,2.4419,2.4442,2.4453,2.4478,2.449,2.4504,2.4523,2.4527,2.4517,2.454,2.4541,2.4534,2.4519,2.4509,2.4507,2.4528,2.4528,2.4528,2.4516,0,2.4236,2.4266,2.4295,2.4312,2.4329,2.4359,2.4371,2.4394,2.4413,2.4429,2.4449,2.4466,2.4482,2.449,2.4496,2.4517,2.4514,2.4518,2.4536,2.4537,2.4528,2.4505,2.4494,2.4482,2.4516,2.4515,2.4515,0,2.4228,2.4252,2.4272,2.4308,2.4316,2.4327,2.4352,2.4367,2.4393,2.4407,2.4423,2.4443,2.4457,2.4469,2.4487,2.4489,2.4498,2.4509,2.451,2.4511,2.4524,2.4505,2.4479,2.4477,2.4514,2.4514,2.4514,0,2.4197,2.4234,2.4251,2.4264,2.4306,2.4313,2.433,2.4357,2.437,2.4391,2.4399,2.4421,2.4432,2.4447,2.4472,2.4479,2.4486,2.4501,2.4496,2.4496,2.4496,2.4495,2.447,2.4503,2.4503,2.4503,2.4503,0,2.4182,2.4192,2.4237,2.4247,2.4259,2.4292,2.4302,2.4322,2.4345,2.4358,2.4384,2.4395,2.4427,2.4441,2.446,2.4471,2.4476,2.4486,2.4491,2.4483,2.4482,2.4489,2.449,2.4503,2.4503,2.4503,2.4503,0,2.4148,2.4179,2.4199,2.4238,2.4248,2.4255,2.4288,2.4297,2.4319,2.4334,2.4339,2.4372,2.439,2.4416,2.4441,2.4454,2.4461,2.447,2.4453,2.4456,2.4449,2.4449,2.4427,2.4425,2.446,2.446,2.4459,0,2.4136,2.4146,2.4186,2.4198,2.4215,2.4233,2.4247,2.4278,2.4291,2.4322,2.4327,2.4347,2.4365,2.4391,2.4416,2.4435,2.4443,2.4434,2.4446,2.4438,2.4441,2.444,2.4441,2.443,2.443,2.443,2.4429,0,2.4111,2.4126,2.4147,2.4172,2.4189,2.421,2.4232,2.4239,2.4275,2.4287,2.4307,2.4321,2.4347,2.4366,2.4389,2.4404,2.4421,2.4426,2.4425,2.4417,2.4407,2.4411,2.4444,2.4426,2.4426,2.4426,2.4426,2.4427,2.4087,2.4097,2.4127,2.4148,2.4169,2.4189,2.42,2.4223,2.4241,2.4266,2.4283,2.4301,2.4325,2.4358,2.4372,2.4385,2.4393,2.4393,2.4393,2.4392,2.4388,2.4406,2.439,2.439,2.439,2.439,2.439,0,2.4062,2.4084,2.4103,2.4134,2.4151,2.4169,2.4194,2.4205,2.4222,2.4245,2.4262,2.4284,2.4302,2.4328,2.4348,2.4353,2.4362,2.4357,2.4357,2.436,2.4381,2.4379,2.435,2.435,2.435,2.435,2.435,2.435,2.4051,2.4068,2.4086,2.4112,2.4133,2.4153,2.4165,2.4183,2.4201,2.4225,2.4241,2.4259,2.4282,2.4304,2.4321,2.4328,2.4333,2.4326,2.4335,2.4355,2.4358,2.4362,2.436,2.4327,2.4327,2.4312,2.4312,2.4312]}]]